Погода в Дубах

Россия / Орловская область     52°53′41″N   37°26′05″E
В апреле 2022 года жителям России запретили посещать сайт meteo.paraplan.net по решению Генеральной прокуратуры. Аудитория сайта уменьшилась в 10 раз. Владельцы сайта не видят смысла в поддержке погодного сервера в таких условиях. Сайт будет закрыт в октябре.
темп.,
°C
ветер,
м/с
пор.,
м/с
влажн.,
%
обл.,
%
осадки,
мм/ч
давл.,
гПа
погр.,
м
4 октября, вт
вт400:00+9ю917835 0.0 1005779
03:00+8ююв9158579 0.0 1006766
06:00+9ююв91784100 0.0 1006933
09:00+10ю101682100 0.1 10071102
12:00+8зюз5885100 0.8 1009610
15:00+8ю61381100 1.0 1010887
18:00+8юз61280100 0.2 1011854
21:00+7юз6108799 0.7 10121218
5 октября, ср
ср500:00+7ююз7118798 0.2 10121039
03:00+7ююз61093100 1.2 10121085
06:00+6юз61091100 1.1 1013880
09:00+7юз599099 1.3 1015765
12:00+7з588177 0.4 1016828
15:00+9зсз7974100 0.8 10171184
18:00+7зсз6988100 0.2 1019926
21:00+7з5986100 0.5 1019681
6 октября, чт
чт600:00+7з5109185 0.3 1020588
03:00+6з4996100 0.3 1021328
06:00+7юз3698100 0.6 1020333
09:00+8з499697 1.0 1020446
12:00+11зсз4684100 0.0 1020729
15:00+11зюз3786100 0.1 1020495
18:00+11юз3685100 0.0 1020152
21:00+10зюз499417 0.0 1021233
7 октября, пт
пт700:00+9зюз411955 0.0 1020277
03:00+8зюз4119565 0.0 1020253
06:00+8з5129617 0.0 1020288
09:00+10сз61090100 0.0 1022563
12:00+13зсз68690 0.0 1023713
15:00+14сз68640 0.0 1023966
18:00+10ссз59840 0.0 1025436
21:00+10сз587374 0.0 1026762
8 октября, сб
сб800:00+7зсз35880 0.0 1027111
03:00+6зсз22920 0.0 102731
06:00+6зюз22915 0.0 102818
09:00+8юз23815 0.0 1028170
12:00+12юз34635 0.0 1026572
15:00+14ююз44600 0.0 1024759
18:00+10ю3475100 0.0 102464
21:00+9ю3777100 0.0 1023130